This is the latest recevied weather packets stored in our database for station/object EB5AGF-13. If no packets are shown the sender has not sent any weather packets the latest 10 day(s).
| Time | Temp. | Humidity | Pressure | Rain* | Wind** | Luminosity | Snow |
|---|---|---|---|---|---|---|---|
| 1777913562 | 20.56° C | 75% | 1007.5 hPa | 0 mm | 5.81 m/s, 220° | 151 W/m² | - |
| 1777913256 | 20.56° C | 75% | 1007.4 hPa | 0 mm | 0.89 m/s, 357° | 163 W/m² | - |
| 1777912953 | 21.11° C | 74% | 1007.4 hPa | 0 mm | 1.79 m/s, 201° | 180 W/m² | - |
| 1777912632 | 21.11° C | 73% | 1007.5 hPa | 0 mm | 2.24 m/s, 236° | 184 W/m² | - |
| 1777912328 | 21.11° C | 74% | 1007.5 hPa | 0 mm | 1.34 m/s, 210° | 197 W/m² | - |
| 1777912025 | 21.11° C | 73% | 1007.3 hPa | 0 mm | 3.58 m/s, 203° | 208 W/m² | - |
| 1777911705 | 21.11° C | 75% | 1007.3 hPa | 0 mm | 3.13 m/s, 154° | 218 W/m² | - |
| 1777911393 | 20.56° C | 74% | 1007.7 hPa | 0 mm | 3.13 m/s, 176° | 233 W/m² | - |
| 1777911049 | 21.11° C | 73% | 1007.6 hPa | 0 mm | 4.47 m/s, 197° | 239 W/m² | - |
| 1777910744 | 21.11° C | 72% | 1007.5 hPa | 0 mm | 1.34 m/s, 212° | 253 W/m² | - |
| 1777910440 | 21.11° C | 71% | 1007.2 hPa | 0 mm | 7.15 m/s, 176° | 266 W/m² | - |
| 1777910137 | 20.56° C | 72% | 1007.4 hPa | 0 mm | 2.68 m/s, 192° | 277 W/m² | - |
| 1777909832 | 21.11° C | 71% | 1007.5 hPa | 0 mm | 0.89 m/s, 266° | 288 W/m² | - |
| 1777909531 | 21.11° C | 72% | 1007.5 hPa | 0 mm | 5.36 m/s, 199° | 299 W/m² | - |
| 1777909232 | 21.11° C | 73% | 1007.4 hPa | 0 mm | 1.79 m/s, 195° | 313 W/m² | - |
| 1777908931 | 21.11° C | 73% | 1007.2 hPa | 0 mm | 1.79 m/s, 238° | 326 W/m² | - |
| 1777908631 | 21.11° C | 73% | 1007.2 hPa | 0 mm | 3.13 m/s, 204° | 334 W/m² | - |
| 1777908331 | 21.11° C | 74% | 1007.3 hPa | 0 mm | 2.68 m/s, 164° | 346 W/m² | - |
| 1777908032 | 21.11° C | 74% | 1007.4 hPa | 0 mm | 2.68 m/s, 266° | 359 W/m² | - |
| 1777907732 | 21.11° C | 73% | 1007.5 hPa | 0 mm | 4.47 m/s, 212° | 370 W/m² | - |
| 1777907431 | 21.11° C | 73% | 1007.3 hPa | 0 mm | 1.34 m/s, 290° | 386 W/m² | - |
| 1777907131 | 21.11° C | 73% | 1007.7 hPa | 0 mm | 2.68 m/s, 205° | 392 W/m² | - |
| 1777906831 | 21.67° C | 71% | 1007.7 hPa | 0 mm | 2.68 m/s, 2° | 408 W/m² | - |
| 1777906531 | 21.67° C | 71% | 1007.7 hPa | 0 mm | 1.34 m/s, 239° | 420 W/m² | - |
| 1777906231 | 21.67° C | 70% | 1007.5 hPa | 0 mm | 6.26 m/s, 168° | 423 W/m² | - |
* Rain latest hour (hover to see other rain measurements)
** Current wind speed in m/s (hover to see current wind gust speed)